Find Starlink 11515

NORAD ID: 62556 Int'l Des: 2025-006 Owner: SPXS Country: US Constellation: starlink operational
LEOCIRCULAR

リアルタイム位置

3D地球を読み込み中...

Starlink 11515について

説明を読み込み中...

次回通過

Passes for default location (London). Set your location on the main map for personalized predictions.

高度履歴

Loading altitude history...

軌道要素

1 62556U 25006C 26124.16423959 .00040491 00000-0 31691-3 0 9992
2 62556 42.9983 165.8216 0003828 285.4728 74.5717 15.70878887 75324
Epoch: May 4, 2026 • Age: 12 hours

現在のステータス

高度 365.4 km
速度 7.69 km/s
衛星直下点 -37.35°S, 59.93°W
打ち上げ日 Jan 10, 2025
運用期間 1.3 years
タイプ internet

技術仕様

分類 Payload
質量 960.00 kg
乾燥質量 910.00 kg
総質量 960.00 kg
長さ 0.30 m
直径 4.10 m
スパン 29.00 m
形状 Box + pan
製造者 SPXS
バスタイプ Starlink V2MD
フェーズステータス In Orbit
所有者/国 SPXS/US

Most Searched